STARLINK-34656, 65032

Orbit data source: Space-Track

STARLINK-34656, 65032 is a payload satellite owned by SpaceX/Seattle (US) in LEO that was launched on Wed, 30 Jul 2025 UTC via an FALCON 9 launch vehicle from the Air Force Eastern Test Range (AFETR). Payload-class satellites include a variety of spacecraft equipped with specific instruments for various scientific and technological missions. These include communications satellites like Starlink; space stations such as the ISS; scientific satellites like the Hubble; Earth observation satellites from companies like Planet Labs, Umbra, and HawkEye 360; GPS; miniature CubeSats for education and research; and military/defense satellites.

Loading next visibility...
Identifier
65032, 2025-161T
Orbit
LEO
Country
Flag of USUS
Related business
Manufacturer
SpaceX/Seattle
Mission
Operational Commercial Communications
Bus & Motor
STARLINK V2MO, Unknown motor
Mass
575 kg wet, ~530 kg dry
Launch date (UTC)
2025-07-30 (11 months ago)
Launch vehicle
FALCON 9
Launch site
Air Force Eastern Test Range (AFETR)
Object type
Payload
Rocket body
Debris
Shape & HBR
Box + 2 Pan, 17.7 m
Radar Cross Section
36.964 m², Large (>1 m²)

Expand to show TLE details & history
Last TLE update: 14 hours ago

TLE from 14 hours ago
0 STARLINK-34656
1 65032U 25161T   26171.28036277  .00011536  00000-0  40089-3 0  9993
2 65032  53.1586 177.9118 0001132  73.6280 286.4845 15.30208706 51031
Epoch: 2026-06-20T06:43Z
TLE epoch observation values (Epoch: 2026-06-20T06:43:43.343Z)
Latitude
-0.00003°
Longitude
168.48393°
Altitude
475.869 km
Speed
7.629 km/s
True Right ascension
11h 51m 38s
True Declination
0° 00' 00"
Sunlit
Object was in daylight at epoch
Visualization orbit readout
Latitude
Unknown
Longitude
Unknown
Altitude
Unknown
Speed
Unknown
Apparent Right ascension
Unknown
Apparent Declination
Unknown
Sunlit
N/A
Visualization observer readout
Local Sidereal Time
07:19:09
Azimuth
Unknown
Elevation
Unknown
Doppler factor
Unknown
Orbital elements
Apogee altitude
476.222 km
Perigee altitude
474.67 km
Semi-major axis
6,853.583 km
Eccentricity
0.00011
Inclination
53.1586°
RAAN
177.9118°
Arg. of periapsis
73.628°
True anomaly
286.47206°
Mean anomaly
286.4845°
Eccentric anomaly
286.47828°
Mean motion
3.82531 °/min
Orbital period
94.11 mins
BSTAR
0.00040089
Loading maneuver chart data...
Computing Atmospheric mass density...
Loading historical data...
Loading historical data...
Loading historical data...
Loading historical data...
Loading historical data...
Loading historical data...
Loading historical data...

Documentation

Showing up to 5 results
|